Simultaneous Nadir Overpasses (SNOs) Predictions

Prediction of SNOs between GOES-14 and AQUA Satellite Orbit:

Table of predicted SNOs for the next 14.0 days since TLE Epoch: 8/8/2025
Index Date Time (GOES-14) GOES-14 Lat,Lon AQUA Lat,Lon Distance(km) Time Diff (sec)
1 08/08/2025 22:00:38 0.89,-107.97 0.79,-108.33 41.75 80
2 08/11/2025 09:59:18 -0.90,-108.02 -0.93,-107.95 8.77 80
3 08/13/2025 22:00:45 0.89,-108.02 1.01,-107.58 50.29 80
4 08/14/2025 10:19:51 -0.88,-108.05 0.03,-112.19 471.22 80
5 08/16/2025 09:56:43 -0.89,-108.07 -1.10,-107.19 100.74 80
6 08/16/2025 22:18:38 0.88,-108.04 0.09,-111.84 431.11 80
7 08/18/2025 21:55:29 0.90,-108.06 1.19,-106.82 141.02 80
8 08/19/2025 10:17:14 -0.88,-108.09 -0.16,-111.43 379.84 80
9 08/21/2025 09:54:05 -0.90,-108.11 -1.29,-106.42 192.18 80
10 08/21/2025 22:15:59 0.88,-108.07 0.23,-111.06 339.79 80
